Overview Statistics Trail Chart Weather Telemetry Raw packets
 

This is the latest recevied weather packets stored in our database for station/object KN6WGU. If no packets are shown the sender has not sent any weather packets the latest 10 day(s).

<< 89 90 91 92 93 94 95 >>
Time Temp. Humidity Pressure Rain* Wind** Luminosity Snow
1787955036 22.78° C 60% 1014.5 hPa 0 mm - 36 W/m² -
1787954732 22.78° C 59% 1014.4 hPa 0 mm - 36 W/m² -
1787954427 22.78° C 58% 1014.3 hPa 0 mm - 37 W/m² -
1787954122 22.78° C 56% 1014.2 hPa 0 mm - 37 W/m² -
1787953821 22.78° C 54% 1014.3 hPa 0 mm - 58 W/m² -
1787953521 22.78° C 57% 1014.2 hPa 0 mm - 41 W/m² -
1787953221 22.78° C 55% 1014.4 hPa 0 mm - 39 W/m² -
1787952918 22.78° C 57% 1014.3 hPa 0 mm - 40 W/m² -
1787952613 22.78° C 55% 1014.3 hPa 0 mm - 40 W/m² -
1787952312 23.33° C 53% 1014.4 hPa 0 mm - 41 W/m² -
1787952009 23.33° C 54% 1014.3 hPa 0 mm - 41 W/m² -
1787951703 23.89° C 55% 1014.4 hPa 0 mm - 41 W/m² -
1787951399 23.33° C 55% 1014.2 hPa 0 mm - 42 W/m² -
1787951095 23.89° C 55% 1014.4 hPa 0 mm - 50 W/m² -
1787950789 23.33° C 53% 1014.4 hPa 0 mm - 43 W/m² -
1787950485 23.89° C 52% 1014.3 hPa 0 mm - 60 W/m² -
1787950182 24.44° C 56% 1014.4 hPa 0 mm - 56 W/m² -
1787949878 25° C 53% 1014.3 hPa 0 mm - 81 W/m² -
1787949577 25.56° C 53% 1014.3 hPa 0 mm - 412 W/m² -
1787949272 25.56° C 54% 1014.5 hPa 0 mm - 447 W/m² -
1787948968 25.56° C 55% 1014.4 hPa 0 mm - 459 W/m² -
1787948664 25.56° C 55% 1014.5 hPa 0 mm - 471 W/m² -
1787948360 25.56° C 58% 1014.5 hPa 0 mm - 482 W/m² -
1787948059 26.11° C 54% 1014.5 hPa 0 mm - 492 W/m² -
1787947758 26.67° C 56% 1014.4 hPa 0 mm - 501 W/m² -

* Rain latest hour (hover to see other rain measurements)
** Current wind speed in m/s (hover to see current wind gust speed)